Regional Weather Roundup
Issued by NWS Charleston, SC

Current Version | Previous Version | Text Only | Print | Product List | Glossary Off
Versions: 1 2 3 4 5 6 7 8 9 10 11 12 13 14 15 16 17 18 19 20 21 22 23 24 25 26 27 28 29 30 31 32 33 34 35 36 37 38 39 40 41 42 43 44 45 46 47 48 49 50
000 ASUS42 KCHS 262011 RWRCHS REGIONAL WEATHER ROUNDUP NATIONAL WEATHER SERVICE CHARLESTON SC 300 PM EST THU FEB 26 2015 NOTE: "FAIR" INDICATES FEW OR NO CLOUDS BELOW 12,000 FEET WITH NO SIGNIFICANT WEATHER AND/OR OBSTRUCTIONS TO VISIBILITY. NOT ALL STATIONS ARE QUALITY CONTROLLED BY THE NATIONAL WEATHER SERVICE. USE DATA WITH CAUTION...ESPECIALLY DEWPOINT OBSERVATIONS. SCZ027-030-031-034>040-042>050-262100- ...SOUTHEAST SOUTH CAROLINA... CITY SKY/WX TMP DP RH WIND PRES REMARKS N CHARLESTON CLOUDY 43 37 79 N10 29.93R WATERFRONT PRK N/A 43 N/A N/A N12 N/A MOUNT PLEASANT LGT RAIN 43 37 81 NW7 29.92R PINOPOLIS N/A 43 37 81 N8 29.84S MONCKS CORNER CLOUDY 43 36 75 N7 N/A SUMMERVILLE CLOUDY 41 37 87 N8 29.95R BEAUFORT MCAS PTSUNNY 50 39 66 NW13 29.91R BEAUFORT ARPT CLOUDY 50 41 71 NW9 29.91R HILTON HEAD IS PTSUNNY 50 39 66 N8G16 29.93R WALTERBORO CLOUDY 45 39 81 N8 29.94R ALLENDALE CLOUDY 46 39 76 NW7 29.93R ...SOUTHERN MIDLANDS AND PEE DEE... CITY SKY/WX TMP DP RH WIND PRES REMARKS GEORGETOWN NOT AVBL KINGSTREE NOT AVBL ORANGEBURG CLOUDY 43 34 70 N6 29.94R BARNWELL CLOUDY 46 37 71 N5 29.95R AIKEN CLOUDY 43 36 75 N3 29.95R MANNING CLOUDY 43 36 75 N5 29.94R COLUMBIA CLOUDY 43 35 73 NW5 29.93R SUMTER CLOUDY 41 34 77 N6 29.92R FLORENCE CLOUDY 41 33 73 N12 29.93R MYRTLE BEACH CLOUDY 41 34 75 N14 29.92R N MYRTLE BEACH CLOUDY 40 34 79 N9 29.91R WCI 34 $$ GAZ063-065-086>088-099>101-113>116-118-119-134>141-150-262100- ...SOUTHEAST GEORGIA... CITY SKY/WX TMP DP RH WIND PRES REMARKS SAVANNAH ARPT CLOUDY 49 37 63 NW10 29.92S HUNTER AAF CLOUDY 50 39 66 W12 29.90R FORT STEWART CLOUDY 47 38 70 NW8 29.92R STATESBORO CLOUDY 48 40 73 N9 29.92S SYLVANIA CLOUDY 47 41 78 N9 29.93S CLAXTON CLOUDY 46 41 81 NW6 29.94R ...CSRA...CENTRAL AND FAR SOUTHEAST GEORGIA... CITY SKY/WX TMP DP RH WIND PRES REMARKS THOMSON CLOUDY 46 41 81 CALM 29.99R AUGUSTA-BUSH CLOUDY 46 35 65 CALM 29.95R AUGUSTA-DANIEL CLOUDY 46 35 65 W5 29.94R SWAINSBORO CLOUDY 46 32 57 N6 29.95S VIDALIA CLOUDY 46 39 76 NW9 29.94S EASTMAN CLOUDY 48 40 74 NW5 29.97S HAZLEHURST CLOUDY 48 41 76 N5 29.94R ALMA CLOUDY 47 38 71 NW9 29.95R WAYCROSS CLOUDY 52 44 72 N9 29.94R JESUP CLOUDY 50 43 76 NW6 29.94R BAXLEY CLOUDY 48 39 71 N5 29.94R BRUNSWICK PTSUNNY 54 41 62 NW10 29.93R SAINT SIMONS SUNNY 54 40 59 NW9 29.92R $$ SCZ027-028-034-036>038-045-046-048>050-GAZ119-141-262100- ...LAKE AND SUPPLEMENTAL COASTAL OBSERVATIONS... STATION/POSITION TIME TEMP WIND PRES WAVE SWELL AIR SEA DIR/SP/G HT/PER HT/PER/DIR (UTC) (F) (DEG/KT/KT) (MB) (FT/S) (FT/S/D) UPR LAKE MARION NOT AVBL WINYAH BAY 1845 40 330/ 8 1011.0 LAKE MURRAY 1900 40 350/ 1/ 6 1012.9R ACE BASIN NERRS NOT AVBL FORT PULASKI 1900 45 49 310/ 11/ 13 1013.1S SAPELO ISLAND 1900 51 320/ 9 1013.0S $$ ANZ835-935-AMZ111-154-330-350-352-354-370-450-454-472-262100- ...C-MAN AND BUOY OBSERVATIONS... STATION/POSITION TIME TEMP WIND PRES WAVE SWELL AIR SEA DIR/SP/G HT/PER HT/PER/DIR (UTC) (F) (DEG/KT/KT) (MB) (FT/S) (FT/S/D) BUOY 41004 1950 44 66 330/ 14/ 17 1012.1R 6/ 9 5/ 9 BUOY 41008 1950 46 53 350/ 12/ 14 1013.2R 3/ 8 2/150/ 8 FOLLY BEACH CMAN 2000 43 330/ 8/ 11 1013.5R CAPERS NEARSHORE NOT AVBL FRIPP NEARSHORE 1900 45 330/ 8/ 10 1012.4S STATION/POSITION TIME TEMP WIND PRES WAVE SWELL AIR SEA DIR/SP/G HT/PER HT/PER/DIR (UTC) (F) (DEG/KT/KT) (MB) (FT/S) (FT/S/D) 5E ST. MARYS GA 1921 54 N/A 3/ 7 2/120/11 FRYING PAN BUOY 1950 41 58 340/ 14/ 17 1012.1R 8/10 7/180/10 BUOY 41025 NOT AVBL CAPE LOOKOUT NC 2000 38 350/ 17/ 21 1010.8R BUOY 41002 1950 68 71 280/ 21/ 27 1007.9R 13/10 10/220/10 BUOY 41010 1920 69 74 280/ 16/ 21 1010.5R ST AUGUSTINE FL 2000 56 330/ 10/ 13 1012.9R $$

USA.gov is the U.S. government's official web portal to all federal, state and local government web resources and services.